Weather History for West Palm Beach, FL

Change the Weather History Date:

Tuesday, November 9, 2010

  Actual Average Record
Temperature  
Mean Temperature 68 °F 74 °F  
Max Temperature 81 °F 81 °F 89 °F (1989)
Min Temperature 54 °F 67 °F 45 °F (1923)
Degree Days  
Heating Degree Days 0 0  
Month to date heating degree days 9 0  
Since 1 July heating degree days 9 1  
Cooling Degree Days 3 9  
Month to date cooling degree days 64 86  
Year to date cooling degree days 3832 3707  
Growing Degree Days 18 (Base 50)    
Moisture  
Dew Point 48 °F    
Average Humidity 57    
Maximum Humidity 87    
Minimum Humidity 26    
Precipitation  
Precipitation 0.00 in 0.18 in 3.55 in (1992)
Month to date precipitation 0.97 1.56  
Year to date precipitation 51.68 55.76  
Snow  
Snow 0.00 in - - ()
Month to date snowfall 0.0  
Since 1 July snowfall 0.0  
Since 1 September snowfall 0.0  
Snow Depth 0.00 in    
Sea Level Pressure  
Sea Level Pressure 30.00 in    
Wind  
Wind Speed 4 mph (NNW)    
Max Wind Speed 10 mph    
Max Gust Speed 14 mph    
Visibility 10 miles    
Events      
T = Trace of Precipitation, MM = Missing Value Source: NWS Daily Summary

Daily Weather History Graph

Daily Weather History Graph

Search for Another Location

Airport:

Trip Planner

Search our weather history database for the weather conditions in past years. The results will help you decide how hot, cold, wet, or windy it might be!

Date:

Astronomy

Nov. 09, 2010 Rise Set
Actual Time 6:35 AM EST 5:32 PM EST
Civil Twilight 6:11 AM EST 5:56 PM EST
Nautical Twilight 5:43 AM EST 6:24 PM EST
Astronomical Twilight 5:15 AM EST 6:52 PM EST
Moon 10:00 AM EST (11/9) 8:42 PM EST (11/9)
Length of Visible Light 11h 45m
Length of Day
10h 57m
Waxing Crescent, 14% of the Moon is Illuminated
Nov 9
Waxing Crescent
Nov 13
First Quarter
Nov 21
Full
Nov 28
Last Quarter
Dec 5
New

Hourly Weather History & Observations

Time (EST) Temp. Dew Point Humidity Pressure Visibility Wind Dir Wind Speed Gust Speed Precip Events Conditions
12:53 AM 57.9 °F 54.0 °F 87% 30.00 in 10.0 mi NW 6.9 mph - N/A   Clear
1:53 AM 57.9 °F 53.1 °F 84% 30.00 in 10.0 mi NNW 4.6 mph - N/A   Clear
2:53 AM 57.0 °F 53.1 °F 87% 29.99 in 10.0 mi Calm Calm - N/A   Clear
3:53 AM 57.0 °F 54.0 °F 89% 30.00 in 10.0 mi NW 3.5 mph - N/A   Clear
4:53 AM 55.9 °F 52.0 °F 87% 30.00 in 10.0 mi NW 3.5 mph - N/A   Partly Cloudy
5:53 AM 55.9 °F 52.0 °F 87% 30.01 in 10.0 mi NW 3.5 mph - N/A   Partly Cloudy
6:53 AM 55.0 °F 51.1 °F 86% 30.03 in 10.0 mi NW 5.8 mph - N/A   Partly Cloudy
7:53 AM 61.0 °F 51.1 °F 70% 30.04 in 10.0 mi NNW 5.8 mph - N/A   Partly Cloudy
8:53 AM 66.9 °F 43.0 °F 42% 30.05 in 10.0 mi NNW 6.9 mph - N/A   Partly Cloudy
9:53 AM 72.0 °F 41.0 °F 33% 30.05 in 10.0 mi NW 5.8 mph - N/A   Partly Cloudy
10:53 AM 73.0 °F 39.9 °F 30% 30.04 in 10.0 mi NW 6.9 mph - N/A   Partly Cloudy
11:53 AM 75.9 °F 43.0 °F 31% 30.02 in 10.0 mi West 6.9 mph - N/A   Clear
12:53 PM 77.0 °F 41.0 °F 28% 29.99 in 10.0 mi NW 4.6 mph - N/A   Clear
1:53 PM 78.1 °F 43.0 °F 29% 29.97 in 10.0 mi WNW 5.8 mph - N/A   Clear
2:53 PM 80.1 °F 42.1 °F 26% 29.96 in 10.0 mi North 4.6 mph - N/A   Clear
3:53 PM 79.0 °F 46.9 °F 32% 29.96 in 10.0 mi NE 3.5 mph - N/A   Partly Cloudy
4:53 PM 77.0 °F 46.0 °F 33% 29.96 in 10.0 mi NE 8.1 mph - N/A   Partly Cloudy
5:53 PM 73.9 °F 48.0 °F 40% 29.97 in 10.0 mi Calm Calm - N/A   Partly Cloudy
6:53 PM 69.1 °F 50.0 °F 51% 29.98 in 10.0 mi Calm Calm - N/A   Clear
7:53 PM 64.0 °F 51.1 °F 63% 29.98 in 10.0 mi Calm Calm - N/A   Clear
8:53 PM 63.0 °F 51.1 °F 65% 29.99 in 10.0 mi Calm Calm - N/A   Clear
9:53 PM 61.0 °F 52.0 °F 72% 29.99 in 10.0 mi Calm Calm - N/A   Clear
10:53 PM 60.1 °F 52.0 °F 75% 29.99 in 10.0 mi Calm Calm - N/A   Clear
11:53 PM 59.0 °F 52.0 °F 78% 29.98 in 10.0 mi Calm Calm - N/A   Clear